Voltar ao catálogo

SL-16 DEB

AtivoLEO
NORAD 23706·DEBRIS·🇷🇺 Russia

Lançado Oct 31, 1995 de Baikonur Cosmodrome

Loading…

Próximas Passagens (próximas 24 horas)

TLE

AtualizadoSource: Space-Track

Época: Sep 14, 2026, 10:30 UTC

1 23706U 95058C   26257.43752775  .00000037  00000-0  73992-4 0  9991
2 23706  70.9978 259.7651 0201333 276.6134 235.4585 13.74454912547587

Acompanhe SL-16 DEB em tempo real com AllMySat

Download on the App Store